Orbus 21S - Orbit

View from above orbital plane
View from above orbital plane
View from above satellite
View from above satellite

Ground track
Ground track

The orbit data is extracted from the following two-line orbital elements,

1 20669U 90056C   13144.47218747  .00002401  00000-0  13718-2 0  1290
2 20669 024.5162 341.4689 7150608 045.1456 326.6983 02.42379173190939
Epoch (UTC): 24 May 2013 11:19:56
Eccentricity: 0.7150608
inclination: 24.5162°
perigee height: 292 km
apogee height: 33771 km
right ascension of ascending node: 341.4689°
argument of perigee: 45.1456°
revolutions per day: 2.42379173
mean anomaly at epoch: 326.6983°
orbit number at epoch: 19093

The dashed part of the orbit path shows where the satellite is in the earth's shadow,  

Developed and maintained by Chris Peat, Heavens-Above GmbH. Please read the updated FAQ before sending e-mail. Imprint. DLR